Location: Vesunti
(61.5000°N, 22.8333°E)
Time: 09:26:20
(UTC+00:00)

Cosmos 2084 Rocket - Pass Details

Date: 17 February 2020
Orbit: 567 x 614 km, 62.8° (Epoch: 27 March)

Event Time Altitude Azimuth Distance (km) Brightness Sun altitude
Exits shadow 04:06:31 25° 286° (WNW) 1,253 4.6 -15.0°
Maximum altitude 04:09:07 80° 11° (N) 627 3.5 -14.7°
Drops below altitude 10° 04:13:37 10° 99° (E) 1,977 7.5 -14.2°
Sets 04:15:54 0° 101° (E) 2,883 8.8 -13.9°
